EXS12R EGPF-LCLK

Flight info

Callsign EXS12R
Flight time N/A
Altitude 33000
Route NORBO Y96 HAVEN DCT ITSUX DCT TINAC DCT DOREV DCT DOSUR DCT GODUR Z998 OSKAN DCT OMELO DCT EVIKU DCT NAVTI/N0442F350 DCT BEGLA DCT SVR DCT BABIT DCT KOTUS DCT OKLOP DCT NISVA DCT RODIP UN131 KULAR UT39 TOMBI DCT VADUS M601 BONEK
Aircraft B738/M-SDE2E3FGHIRWXY/LB1

Departure

Time 2026-05-01 07:29
Airport Glasgow Airport (EGPF)

Arrival

Time N/A
Airport Larnaca International Airport (LCLK)
Time Latitude Longitude Altitude Speed Heading
2026-05-01 07:23 55.86623 -4.43569 30 ft 12 kts 344°
2026-05-01 07:23 55.86763 -4.43550 30 ft 12 kts 73°
2026-05-01 07:24 55.86786 -4.43413 30 ft 11 kts 74°
2026-05-01 07:24 55.86808 -4.43280 29 ft 11 kts 73°
2026-05-01 07:24 55.86829 -4.43151 30 ft 11 kts 73°
2026-05-01 07:24 55.86849 -4.43025 29 ft 10 kts 74°
2026-05-01 07:25 55.86899 -4.42940 30 ft 10 kts 27°
2026-05-01 07:25 55.86961 -4.42883 30 ft 11 kts 27°
2026-05-01 07:25 55.87040 -4.42825 30 ft 14 kts 20°
2026-05-01 07:25 55.87138 -4.42762 30 ft 16 kts 20°
2026-05-01 07:26 55.87238 -4.42690 30 ft 15 kts 21°
2026-05-01 07:26 55.87336 -4.42628 30 ft 15 kts 19°
2026-05-01 07:26 55.87422 -4.42531 30 ft 16 kts 46°
2026-05-01 07:26 55.87506 -4.42375 30 ft 19 kts 46°
2026-05-01 07:27 55.87596 -4.42205 29 ft 19 kts 46°
2026-05-01 07:27 55.87684 -4.42040 30 ft 18 kts 46°
2026-05-01 07:27 55.87772 -4.41887 30 ft 17 kts 31°
2026-05-01 07:27 55.87887 -4.41861 28 ft 17 kts 340°
2026-05-01 07:28 55.87912 -4.41988 28 ft 10 kts 228°
2026-05-01 07:28 55.87903 -4.42006 30 ft 0 kts 226°
2026-05-01 07:28 55.87888 -4.42034 30 ft 14 kts 226°
2026-05-01 07:29 55.87659 -4.42460 30 ft 81 kts 226°
2026-05-01 07:29 55.87122 -4.43462 29 ft 140 kts 227°
2026-05-01 07:29 55.86333 -4.44930 122 ft 179 kts 226°
2026-05-01 07:29 55.85483 -4.46553 801 ft 181 kts 227°
2026-05-01 07:30 55.84628 -4.48220 1580 ft 180 kts 226°
2026-05-01 07:30 55.83800 -4.49839 2392 ft 179 kts 227°
2026-05-01 07:30 55.82961 -4.51556 2902 ft 192 kts 227°
2026-05-01 07:30 55.82007 -4.53282 3420 ft 200 kts 221°
2026-05-01 07:31 55.80964 -4.54983 3831 ft 208 kts 220°
2026-05-01 07:31 55.77520 -4.60670 4916 ft 252 kts 221°
2026-05-01 07:32 55.74959 -4.65158 6403 ft 254 kts 223°
2026-05-01 07:32 55.73711 -4.67355 7193 ft 254 kts 222°
2026-05-01 07:33 55.71118 -4.71800 8443 ft 263 kts 221°
2026-05-01 07:33 55.69759 -4.73992 9126 ft 265 kts 213°
2026-05-01 07:33 55.66280 -4.75887 10422 ft 269 kts 184°
2026-05-01 07:34 55.64347 -4.75606 10582 ft 292 kts 164°
2026-05-01 07:34 55.60633 -4.71669 11023 ft 334 kts 138°
2026-05-01 07:34 55.59269 -4.68282 11557 ft 348 kts 115°
2026-05-01 07:35 55.58719 -4.64079 12237 ft 354 kts 102°
2026-05-01 07:35 55.58413 -4.59736 12866 ft 358 kts 100°
2026-05-01 07:35 55.58153 -4.55332 13487 ft 362 kts 99°
2026-05-01 07:35 55.57898 -4.50873 14127 ft 366 kts 99°
2026-05-01 07:36 55.57635 -4.46382 14694 ft 369 kts 99°
2026-05-01 07:36 55.57358 -4.41858 15212 ft 373 kts 99°
2026-05-01 07:36 55.57069 -4.37282 15750 ft 376 kts 100°
2026-05-01 07:36 55.56769 -4.32668 16306 ft 379 kts 100°
2026-05-01 07:37 55.56148 -4.23325 17391 ft 386 kts 101°